Retour au catalogue

METEOR 2-15

ActifMétéoPO
NORAD 17290·PAYLOAD·🇷🇺 Russia

Lancé Jan 5, 1987 depuis Plesetsk Cosmodrome

Loading…

Prochains Passages (prochaines 24 heures)

TLE

FraisSource: Space-Track

Époque: Sep 14, 2026, 08:13 UTC

1 17290U 87001A   26257.34262452  .00000037  00000-0  19341-4 0  9997
2 17290  82.4694  24.1751 0011727 284.4559  75.5300 13.85274888  6166

Suivez METEOR 2-15 en temps réel avec AllMySat

Download on the App Store